| time (UTC) | temp C | wind direction | speed KPH | gust KPH | rain 1hr cm | rain 24hr cm | rain mn cm | humidity % | barometer mb |
| 20260506185310 | 28 | 152 | 0.0 | 0.0 | 0.00 | 0.00 | 0.00 | 80 | 1010.1 |
| 20260506184807 | 28 | 147 | 3.2 | 4.8 | 0.00 | 0.00 | 0.00 | 79 | 1010.5 |
| 20260506184305 | 28 | 112 | 0.0 | 3.2 | 0.00 | 0.00 | 0.00 | 81 | 1010.3 |
| 20260506183802 | 27 | 97 | 3.2 | 4.8 | 0.00 | 0.00 | 0.00 | 82 | 1010.5 |
| 20260506183257 | 27 | 164 | 3.2 | 9.7 | 0.00 | 0.00 | 0.00 | 83 | 1010.3 |
| 20260506182754 | 27 | 147 | 8.0 | 9.7 | 0.00 | 0.00 | 0.00 | 84 | 1010.5 |
| 20260506182251 | 27 | 114 | 6.4 | 9.7 | 0.00 | 0.00 | 0.00 | 83 | 1010.5 |
| 20260506181749 | 27 | 103 | 4.8 | 6.4 | 0.00 | 0.00 | 0.00 | 83 | 1010.5 |
| 20260506181247 | 27 | 113 | 6.4 | 6.4 | 0.00 | 0.00 | 0.00 | 82 | 1010.7 |
| 20260506180744 | 27 | 112 | 3.2 | 4.8 | 0.00 | 0.00 | 0.00 | 84 | 1010.8 |
| 20260506180239 | 27 | 124 | 4.8 | 9.7 | 0.00 | 0.00 | 0.00 | 82 | 1010.8 |
| 20260506175736 | 27 | 131 | 0.0 | 3.2 | 0.00 | 0.00 | 0.00 | 83 | 1011.0 |
| 20260506175233 | 26 | 98 | 1.6 | 3.2 | 0.00 | 0.00 | 0.00 | 86 | 1010.7 |
| 20260506174730 | 26 | 95 | 4.8 | 6.4 | 0.00 | 0.00 | 0.00 | 88 | 1011.0 |
| 20260506174227 | 26 | 99 | 3.2 | 4.8 | 0.00 | 0.00 | 0.00 | 89 | 1011.2 |
| 20260506173725 | 26 | 112 | 3.2 | 3.2 | 0.00 | 0.00 | 0.00 | 88 | 1011.2 |
| 20260506173221 | 26 | 95 | 3.2 | 6.4 | 0.00 | 0.00 | 0.00 | 86 | 1011.0 |
| 20260506172718 | 26 | 69 | 1.6 | 4.8 | 0.00 | 0.00 | 0.00 | 85 | 1011.1 |
| 20260506172215 | 26 | 64 | 1.6 | 4.8 | 0.00 | 0.00 | 0.00 | 85 | 1011.4 |
| 20260506171713 | 26 | 58 | 1.6 | 4.8 | 0.00 | 0.00 | 0.00 | 85 | 1011.4 |
| 20260506171210 | 26 | 102 | 0.0 | 1.6 | 0.00 | 0.00 | 0.00 | 85 | 1011.6 |
| 20260506170707 | 26 | 66 | 0.0 | 1.6 | 0.00 | 0.00 | 0.00 | 86 | 1011.4 |
| 20260506170204 | 26 | 97 | 1.6 | 3.2 | 0.00 | 0.00 | 0.00 | 85 | 1011.7 |
| 20260506165702 | 26 | 90 | 0.0 | 1.6 | 0.00 | 0.00 | 0.00 | 85 | 1011.8 |
| 20260506165158 | 26 | 46 | 1.6 | 3.2 | 0.00 | 0.00 | 0.00 | 85 | 1011.8 |
| 20260506164655 | 26 | 99 | 0.0 | 3.2 | 0.00 | 0.00 | 0.00 | 86 | 1011.7 |
| 20260506164153 | 26 | 110 | 1.6 | 4.8 | 0.00 | 0.00 | 0.00 | 85 | 1011.7 |
| 20260506163649 | 26 | 99 | 1.6 | 3.2 | 0.00 | 0.00 | 0.00 | 86 | 1011.8 |
| 20260506163145 | 26 | 101 | 1.6 | 3.2 | 0.00 | 0.00 | 0.00 | 87 | 1011.6 |
| 20260506162641 | 25 | 95 | 1.6 | 3.2 | 0.00 | 0.00 | 0.00 | 87 | 1011.7 |
| 20260506162138 | 25 | 99 | 1.6 | 3.2 | 0.00 | 0.00 | 0.00 | 86 | 1011.7 |
| 20260506161635 | 26 | 86 | 1.6 | 3.2 | 0.00 | 0.00 | 0.00 | 86 | 1011.3 |
| 20260506161132 | 26 | 105 | 0.0 | 1.6 | 0.00 | 0.00 | 0.00 | 87 | 1011.4 |
| 20260506160630 | 25 | 103 | 0.0 | 1.6 | 0.00 | 0.00 | 0.00 | 87 | 1011.2 |
| 20260506160126 | 25 | 108 | 3.2 | 4.8 | 0.00 | 0.00 | 0.00 | 86 | 1011.2 |
| 20260506155625 | 26 | 97 | 3.2 | 6.4 | 0.00 | 0.00 | 0.00 | 86 | 1010.8 |
| 20260506155122 | 26 | 148 | 3.2 | 6.4 | 0.00 | 0.00 | 0.00 | 86 | 1010.8 |
| 20260506153224 | 26 | 115 | 4.8 | 6.4 | 0.00 | 0.00 | 0.00 | 86 | 1010.6 |
| 20260506152721 | 26 | 112 | 4.8 | 4.8 | 0.00 | 0.00 | 0.00 | 86 | 1010.5 |
| 20260506152218 | 26 | 112 | 3.2 | 4.8 | 0.00 | 0.00 | 0.00 | 87 | 1010.6 |
| 20260506151717 | 26 | 139 | 1.6 | 1.6 | 0.00 | 0.00 | 0.00 | 85 | 1010.8 |
| 20260506151213 | 26 | 108 | 0.0 | 0.0 | 0.00 | 0.00 | 0.00 | 86 | 1010.7 |
| 20260506150710 | 25 | 162 | 0.0 | 0.0 | 0.00 | 0.00 | 0.00 | 87 | 1010.6 |
| 20260506150207 | 25 | 126 | 1.6 | 3.2 | 0.00 | 0.00 | 0.00 | 87 | 1010.9 |
| 20260506145704 | 25 | 131 | 1.6 | 6.4 | 0.00 | 0.00 | 0.00 | 87 | 1010.5 |
| 20260506145200 | 25 | 140 | 1.6 | 4.8 | 0.00 | 0.00 | 0.00 | 89 | 1010.4 |
| 20260506144658 | 25 | 127 | 4.8 | 6.4 | 0.00 | 0.00 | 0.00 | 88 | 1010.2 |
| 20260506144155 | 25 | 120 | 4.8 | 11.3 | 0.00 | 0.00 | 0.00 | 88 | 1010.3 |
| 20260506143653 | 25 | 130 | 4.8 | 9.7 | 0.00 | 0.00 | 0.00 | 90 | 1010.2 |
| 20260506143150 | 25 | 122 | 4.8 | 12.9 | 0.00 | 0.00 | 0.00 | 90 | 1010.4 |
| 20260506142649 | 25 | 110 | 4.8 | 11.3 | 0.00 | 0.00 | 0.00 | 91 | 1010.0 |
| 20260506142146 | 25 | 125 | 1.6 | 6.4 | 0.00 | 0.00 | 0.00 | 92 | 1010.0 |
| 20260506141644 | 25 | 133 | 0.0 | 6.4 | 0.00 | 0.00 | 0.00 | 91 | 1010.0 |
| 20260506141142 | 25 | 124 | 6.4 | 12.9 | 0.00 | 0.00 | 0.00 | 91 | 1009.7 |
| 20260506140639 | 25 | 183 | 9.7 | 12.9 | 0.00 | 0.00 | 0.00 | 92 | 1009.6 |
| 20260506140136 | 24 | 106 | 9.7 | 12.9 | 0.00 | 0.00 | 0.00 | 92 | 1009.6 |
| 20260506135633 | 24 | 125 | 4.8 | 6.4 | 0.00 | 0.00 | 0.00 | 93 | 1009.6 |
| 20260506135129 | 24 | 128 | 8.0 | 11.3 | 0.00 | 0.00 | 0.00 | 94 | 1009.5 |
| 20260506134626 | 24 | 143 | 6.4 | 6.4 | 0.00 | 0.00 | 0.00 | 94 | 1009.7 |
| 20260506134121 | 24 | 149 | 1.6 | 3.2 | 0.00 | 0.00 | 0.00 | 95 | 1009.8 |
| 20260506133619 | 24 | 112 | 6.4 | 11.3 | 0.00 | 0.00 | 0.00 | 94 | 1009.7 |
| 20260506133116 | 24 | 111 | 3.2 | 6.4 | 0.00 | 0.00 | 0.00 | 95 | 1009.8 |
| 20260506132613 | 23 | 138 | 1.6 | 4.8 | 0.00 | 0.00 | 0.00 | 95 | 1009.8 |
| 20260506132110 | 23 | 130 | 6.4 | 6.4 | 0.00 | 0.00 | 0.00 | 95 | 1010.1 |
| 20260506131607 | 23 | 158 | 1.6 | 4.8 | 0.00 | 0.00 | 0.00 | 95 | 1010.0 |
| 20260506131103 | 23 | 177 | 1.6 | 6.4 | 0.00 | 0.00 | 0.00 | 95 | 1010.0 |
| 20260506130601 | 23 | 110 | 6.4 | 9.7 | 0.00 | 0.00 | 0.00 | 95 | 1009.8 |
| 20260506130058 | 23 | 130 | 1.6 | 3.2 | 0.00 | 0.00 | 0.00 | 95 | 1009.7 |
| 20260506125556 | 23 | 146 | 3.2 | 4.8 | 0.00 | 0.00 | 0.00 | 95 | 1009.7 |
| 20260506125054 | 23 | 117 | 4.8 | 6.4 | 0.00 | 0.00 | 0.00 | 95 | 1009.7 |
| 20260506124551 | 23 | 192 | 1.6 | 3.2 | 0.00 | 0.00 | 0.00 | 96 | 1009.8 |
| 20260506124049 | 23 | 151 | 1.6 | 3.2 | 0.00 | 0.00 | 0.00 | 96 | 1009.9 |
| 20260506123546 | 23 | 114 | 4.8 | 6.4 | 0.00 | 0.00 | 0.00 | 96 | 1009.7 |
| 20260506123045 | 23 | 144 | 6.4 | 9.7 | 0.00 | 0.00 | 0.00 | 96 | 1009.6 |
| 20260506122541 | 23 | 128 | 1.6 | 3.2 | 0.00 | 0.00 | 0.00 | 96 | 1009.6 |
| 20260506122039 | 23 | 148 | 6.4 | 6.4 | 0.00 | 0.00 | 0.00 | 96 | 1009.6 |
| 20260506121536 | 23 | 156 | 4.8 | 6.4 | 0.00 | 0.00 | 0.00 | 96 | 1009.6 |
| 20260506121032 | 23 | 130 | 1.6 | 3.2 | 0.00 | 0.00 | 0.00 | 96 | 1009.5 |
| 20260506120531 | 23 | 127 | 3.2 | 4.8 | 0.00 | 0.00 | 0.00 | 96 | 1009.6 |
| 20260506120028 | 23 | 135 | 3.2 | 6.4 | 0.00 | 0.00 | 0.00 | 96 | 1009.5 |
| 20260506115526 | 23 | 125 | 1.6 | 3.2 | 0.00 | 0.00 | 0.00 | 96 | 1009.5 |
| 20260506115024 | 23 | 144 | 3.2 | 6.4 | 0.00 | 0.00 | 0.00 | 96 | 1009.3 |
| 20260506114521 | 23 | 127 | 1.6 | 4.8 | 0.00 | 0.00 | 0.00 | 96 | 1009.3 |
| 20260506114019 | 23 | 120 | 6.4 | 9.7 | 0.00 | 0.00 | 0.00 | 97 | 1009.5 |
| 20260506113517 | 23 | 127 | 3.2 | 11.3 | 0.00 | 0.00 | 0.00 | 97 | 1009.3 |
| 20260506113014 | 23 | 130 | 3.2 | 4.8 | 0.00 | 0.00 | 0.00 | 97 | 1009.1 |
| 20260506112510 | 23 | 142 | 0.0 | 3.2 | 0.00 | 0.00 | 0.00 | 97 | 1009.1 |
| 20260506112008 | 23 | 142 | 3.2 | 9.7 | 0.00 | 0.00 | 0.00 | 97 | 1009.2 |
| 20260506111506 | 23 | 155 | 3.2 | 6.4 | 0.00 | 0.00 | 0.00 | 97 | 1009.2 |
| 20260506111002 | 23 | 135 | 3.2 | 4.8 | 0.00 | 0.00 | 0.00 | 97 | 1009.2 |
| 20260506110500 | 23 | 155 | 1.6 | 4.8 | 0.00 | 0.00 | 0.00 | 97 | 1009.0 |
| 20260506105957 | 23 | 135 | 3.2 | 4.8 | 0.00 | 0.00 | 0.00 | 97 | 1009.1 |
| 20260506105453 | 23 | 148 | 0.0 | 1.6 | 0.00 | 0.00 | 0.00 | 96 | 1008.9 |
| 20260506104951 | 23 | 134 | 0.0 | 4.8 | 0.00 | 0.00 | 0.00 | 96 | 1008.9 |
| 20260506104449 | 23 | 145 | 1.6 | 6.4 | 0.00 | 0.00 | 0.00 | 96 | 1008.9 |
| 20260506103947 | 23 | 139 | 0.0 | 4.8 | 0.00 | 0.00 | 0.00 | 96 | 1008.7 |
| 20260506103443 | 23 | 129 | 4.8 | 6.4 | 0.00 | 0.00 | 0.00 | 96 | 1008.7 |
| 20260506102940 | 23 | 178 | 6.4 | 11.3 | 0.00 | 0.00 | 0.00 | 96 | 1008.6 |
| 20260506102438 | 23 | 159 | 1.6 | 6.4 | 0.00 | 0.00 | 0.00 | 96 | 1008.7 |
| 20260506101935 | 23 | 175 | 3.2 | 12.9 | 0.00 | 0.00 | 0.00 | 96 | 1008.5 |
| 20260506101431 | 23 | 136 | 4.8 | 11.3 | 0.00 | 0.00 | 0.00 | 96 | 1008.7 |
| 20260506100929 | 23 | 110 | 1.6 | 3.2 | 0.00 | 0.00 | 0.00 | 96 | 1008.6 |
| 20260506100427 | 23 | 158 | 3.2 | 4.8 | 0.00 | 0.00 | 0.00 | 96 | 1008.6 |
| 20260506095925 | 23 | 166 | 3.2 | 16.1 | 0.00 | 0.00 | 0.00 | 96 | 1008.6 |
| 20260506095423 | 23 | 159 | 8.0 | 9.7 | 0.00 | 0.00 | 0.00 | 96 | 1008.7 |
| 20260506094919 | 23 | 112 | 3.2 | 11.3 | 0.00 | 0.00 | 0.00 | 96 | 1008.6 |
| 20260506094418 | 23 | 133 | 1.6 | 11.3 | 0.00 | 0.00 | 0.00 | 96 | 1008.4 |
| 20260506093915 | 23 | 158 | 3.2 | 6.4 | 0.00 | 0.00 | 0.00 | 96 | 1008.5 |
| 20260506093413 | 23 | 148 | 6.4 | 6.4 | 0.00 | 0.00 | 0.00 | 96 | 1008.4 |
| 20260506092910 | 23 | 133 | 1.6 | 4.8 | 0.00 | 0.00 | 0.00 | 96 | 1008.6 |
| 20260506092408 | 23 | 143 | 1.6 | 6.4 | 0.00 | 0.00 | 0.00 | 96 | 1008.4 |
| 20260506091904 | 23 | 89 | 3.2 | 11.3 | 0.00 | 0.00 | 0.00 | 96 | 1008.6 |
| 20260506091403 | 23 | 187 | 1.6 | 9.7 | 0.00 | 0.00 | 0.00 | 96 | 1008.4 |
| 20260506090859 | 23 | 153 | 6.4 | 14.5 | 0.00 | 0.00 | 0.00 | 96 | 1008.4 |
| 20260506090357 | 23 | 131 | 6.4 | 11.3 | 0.00 | 0.00 | 0.00 | 96 | 1008.4 |
| 20260506085854 | 23 | 136 | 4.8 | 9.7 | 0.00 | 0.00 | 0.00 | 96 | 1008.4 |
| 20260506085350 | 23 | 111 | 1.6 | 9.7 | 0.00 | 0.00 | 0.00 | 96 | 1008.3 |
| 20260506084847 | 23 | 163 | 8.0 | 11.3 | 0.00 | 0.00 | 0.00 | 96 | 1008.1 |
| 20260506084343 | 23 | 133 | 1.6 | 6.4 | 0.00 | 0.00 | 0.00 | 95 | 1008.4 |
| 20260506083840 | 23 | 221 | 6.4 | 11.3 | 0.00 | 0.00 | 0.00 | 95 | 1008.5 |
| 20260506083338 | 23 | 165 | 3.2 | 9.7 | 0.00 | 0.00 | 0.00 | 95 | 1008.3 |
| 20260506082835 | 23 | 121 | 4.8 | 12.9 | 0.00 | 0.00 | 0.00 | 95 | 1008.5 |
| 20260506082331 | 23 | 172 | 3.2 | 11.3 | 0.00 | 0.00 | 0.00 | 95 | 1008.5 |
| 20260506081827 | 23 | 137 | 6.4 | 9.7 | 0.00 | 0.00 | 0.00 | 95 | 1008.6 |
| 20260506081326 | 23 | 134 | 4.8 | 9.7 | 0.00 | 0.00 | 0.00 | 95 | 1008.4 |
| 20260506080823 | 23 | 162 | 3.2 | 4.8 | 0.00 | 0.00 | 0.00 | 95 | 1008.4 |
| 20260506080319 | 23 | 130 | 3.2 | 11.3 | 0.00 | 0.00 | 0.00 | 95 | 1008.4 |
| 20260506073303 | 23 | 145 | 3.2 | 4.8 | 0.00 | 0.00 | 0.00 | 95 | 1009.1 |
| 20260506072800 | 23 | 161 | 1.6 | 3.2 | 0.00 | 0.00 | 0.00 | 95 | 1009.2 |
| 20260506072258 | 23 | 126 | 1.6 | 4.8 | 0.00 | 0.00 | 0.00 | 95 | 1009.2 |
| 20260506071755 | 23 | 150 | 1.6 | 4.8 | 0.00 | 0.00 | 0.00 | 95 | 1009.1 |
| 20260506071253 | 23 | 134 | 0.0 | 11.3 | 0.00 | 0.00 | 0.00 | 95 | 1009.2 |
| 20260506070750 | 23 | 120 | 1.6 | 6.4 | 0.00 | 0.00 | 0.00 | 95 | 1009.1 |
| 20260506070247 | 23 | 178 | 3.2 | 3.2 | 0.00 | 0.00 | 0.00 | 95 | 1009.1 |
| 20260506062224 | 23 | 138 | 4.8 | 11.3 | 0.00 | 0.00 | 0.00 | 94 | 1009.3 |
| 20260506061720 | 23 | 125 | 4.8 | 6.4 | 0.00 | 0.00 | 0.00 | 94 | 1009.3 |
| 20260506061217 | 23 | 151 | 1.6 | 4.8 | 0.00 | 0.00 | 0.00 | 94 | 1009.4 |
| 20260506060716 | 23 | 117 | 1.6 | 4.8 | 0.00 | 0.00 | 0.00 | 94 | 1009.6 |
| 20260506060212 | 23 | 128 | 3.2 | 9.7 | 0.00 | 0.00 | 0.00 | 94 | 1009.4 |
| 20260506051144 | 23 | 190 | 4.8 | 11.3 | 0.00 | 0.00 | 0.00 | 92 | 1009.6 |
| 20260506050643 | 23 | 131 | 3.2 | 9.7 | 0.00 | 0.00 | 0.00 | 92 | 1009.5 |
| 20260506050139 | 23 | 134 | 4.8 | 4.8 | 0.00 | 0.00 | 0.00 | 92 | 1009.5 |
| 20260506045132 | 23 | 190 | 6.4 | 11.3 | 0.00 | 0.00 | 0.00 | 92 | 1009.5 |
| 20260506044631 | 23 | 159 | 3.2 | 6.4 | 0.00 | 0.00 | 0.00 | 92 | 1009.8 |
| 20260506044127 | 24 | 160 | 3.2 | 9.7 | 0.00 | 0.00 | 0.00 | 91 | 1009.7 |
| 20260506043624 | 24 | 117 | 3.2 | 11.3 | 0.00 | 0.00 | 0.00 | 91 | 1009.6 |
| 20260506043123 | 24 | 144 | 14.5 | 17.7 | 0.00 | 0.00 | 0.00 | 91 | 1009.5 |
| 20260506042621 | 24 | 130 | 9.7 | 14.5 | 0.00 | 0.00 | 0.00 | 91 | 1009.3 |
| 20260506042119 | 24 | 124 | 6.4 | 11.3 | 0.00 | 0.00 | 0.00 | 91 | 1009.4 |
| 20260506041618 | 24 | 152 | 3.2 | 9.7 | 0.00 | 0.00 | 0.00 | 91 | 1009.4 |
| 20260506041114 | 24 | 108 | 3.2 | 6.4 | 0.00 | 0.00 | 0.00 | 91 | 1009.3 |
| 20260506040612 | 24 | 140 | 1.6 | 6.4 | 0.00 | 0.00 | 0.00 | 91 | 1009.5 |
| 20260506040108 | 24 | 153 | 6.4 | 12.9 | 0.00 | 0.00 | 0.00 | 90 | 1009.3 |
| 20260506035605 | 24 | 137 | 4.8 | 6.4 | 0.00 | 0.00 | 0.00 | 90 | 1009.5 |
| 20260506035101 | 24 | 157 | 4.8 | 11.3 | 0.00 | 0.00 | 0.00 | 90 | 1009.4 |
| 20260506034559 | 24 | 148 | 3.2 | 4.8 | 0.00 | 0.00 | 0.00 | 90 | 1009.5 |
| 20260506034056 | 24 | 164 | 3.2 | 12.9 | 0.00 | 0.00 | 0.00 | 90 | 1009.4 |
| 20260506033553 | 24 | 117 | 8.0 | 11.3 | 0.00 | 0.00 | 0.00 | 90 | 1009.4 |
| 20260506033050 | 24 | 134 | 4.8 | 9.7 | 0.00 | 0.00 | 0.00 | 90 | 1009.2 |
| 20260506032547 | 24 | 135 | 8.0 | 11.3 | 0.00 | 0.00 | 0.00 | 90 | 1009.1 |
| 20260506032044 | 24 | 130 | 3.2 | 6.4 | 0.00 | 0.00 | 0.00 | 90 | 1008.9 |
| 20260506031542 | 24 | 138 | 1.6 | 9.7 | 0.00 | 0.00 | 0.00 | 90 | 1009.0 |
| 20260506031038 | 24 | 122 | 1.6 | 6.4 | 0.00 | 0.00 | 0.00 | 90 | 1009.2 |
| 20260506030536 | 24 | 170 | 3.2 | 6.4 | 0.00 | 0.00 | 0.00 | 90 | 1009.1 |
| 20260506030033 | 24 | 166 | 8.0 | 9.7 | 0.00 | 0.00 | 0.00 | 90 | 1008.8 |
| 20260506025530 | 24 | 148 | 4.8 | 6.4 | 0.00 | 0.00 | 0.00 | 90 | 1008.9 |
| 20260506025026 | 24 | 140 | 1.6 | 6.4 | 0.00 | 0.00 | 0.00 | 90 | 1008.8 |
| 20260506024523 | 24 | 139 | 3.2 | 4.8 | 0.00 | 0.00 | 0.00 | 90 | 1008.8 |
| 20260506024020 | 24 | 162 | 3.2 | 4.8 | 0.00 | 0.00 | 0.00 | 90 | 1008.5 |
| 20260506023516 | 24 | 127 | 1.6 | 4.8 | 0.00 | 0.00 | 0.00 | 90 | 1008.4 |
| 20260506023014 | 24 | 172 | 4.8 | 11.3 | 0.00 | 0.00 | 0.00 | 90 | 1008.4 |
| 20260506022511 | 25 | 213 | 3.2 | 6.4 | 0.00 | 0.00 | 0.00 | 90 | 1008.4 |
| 20260506022008 | 25 | 206 | 1.6 | 11.3 | 0.00 | 0.00 | 0.00 | 89 | 1008.3 |
| 20260506021506 | 25 | 156 | 6.4 | 12.9 | 0.00 | 0.00 | 0.00 | 89 | 1008.1 |
| 20260506021003 | 25 | 143 | 3.2 | 9.7 | 0.00 | 0.00 | 0.00 | 89 | 1008.2 |
| 20260506020500 | 25 | 160 | 6.4 | 17.7 | 0.00 | 0.00 | 0.00 | 89 | 1008.1 |
| 20260506015957 | 25 | 142 | 9.7 | 14.5 | 0.00 | 0.00 | 0.00 | 89 | 1008.0 |
| 20260506015455 | 25 | 167 | 3.2 | 9.7 | 0.00 | 0.00 | 0.00 | 89 | 1007.9 |
| 20260506014951 | 25 | 132 | 8.0 | 16.1 | 0.00 | 0.00 | 0.00 | 89 | 1007.8 |
| 20260506014448 | 25 | 137 | 6.4 | 11.3 | 0.00 | 0.00 | 0.00 | 88 | 1007.8 |
| 20260506013944 | 25 | 138 | 6.4 | 16.1 | 0.00 | 0.00 | 0.00 | 88 | 1007.7 |
| 20260506013443 | 25 | 186 | 4.8 | 12.9 | 0.00 | 0.00 | 0.00 | 88 | 1007.6 |
| 20260506012939 | 25 | 134 | 8.0 | 11.3 | 0.00 | 0.00 | 0.00 | 88 | 1007.5 |
| 20260506012435 | 25 | 158 | 6.4 | 12.9 | 0.00 | 0.00 | 0.00 | 87 | 1007.5 |
| 20260506011932 | 25 | 155 | 6.4 | 9.7 | 0.00 | 0.00 | 0.00 | 87 | 1007.4 |
| 20260506011430 | 25 | 133 | 8.0 | 16.1 | 0.00 | 0.00 | 0.00 | 87 | 1007.3 |
| 20260506010926 | 25 | 137 | 3.2 | 17.7 | 0.00 | 0.00 | 0.00 | 86 | 1007.4 |
| 20260506010426 | 25 | 209 | 6.4 | 11.3 | 0.00 | 0.00 | 0.00 | 86 | 1007.3 |
| 20260506005921 | 25 | 161 | 9.7 | 14.5 | 0.00 | 0.00 | 0.00 | 86 | 1007.3 |
| 20260506005419 | 25 | 141 | 6.4 | 14.5 | 0.00 | 0.00 | 0.00 | 85 | 1007.0 |
| 20260506004914 | 25 | 112 | 3.2 | 11.3 | 0.00 | 0.00 | 0.00 | 85 | 1007.0 |
| 20260506004413 | 25 | 116 | 8.0 | 11.3 | 0.00 | 0.00 | 0.00 | 85 | 1007.0 |
| 20260506003908 | 25 | 131 | 8.0 | 14.5 | 0.00 | 0.00 | 0.00 | 84 | 1006.9 |
| 20260506003404 | 25 | 127 | 3.2 | 12.9 | 0.00 | 0.00 | 0.00 | 83 | 1006.9 |
| 20260506002901 | 26 | 94 | 4.8 | 9.7 | 0.00 | 0.00 | 0.00 | 82 | 1006.9 |
| 20260506002357 | 26 | 136 | 4.8 | 9.7 | 0.00 | 0.00 | 0.00 | 82 | 1006.9 |
| 20260506001853 | 26 | 120 | 1.6 | 4.8 | 0.00 | 0.00 | 0.00 | 82 | 1007.0 |
| 20260506001350 | 26 | 186 | 1.6 | 6.4 | 0.00 | 0.00 | 0.00 | 82 | 1007.0 |
| 20260506000847 | 26 | 107 | 0.0 | 9.7 | 0.00 | 0.00 | 0.00 | 82 | 1006.9 |
| 20260506000346 | 26 | 177 | 1.6 | 9.7 | 0.00 | 0.00 | 0.00 | 81 | 1006.8 |
| 20260505235841 | 26 | 126 | 4.8 | 16.1 | 0.00 | 0.00 | 0.00 | 81 | 1006.9 |
| 20260505235339 | 26 | 299 | 3.2 | 12.9 | 0.00 | 0.00 | 0.00 | 80 | 1006.8 |
| 20260505234836 | 26 | 144 | 9.7 | 14.5 | 0.00 | 0.00 | 0.00 | 80 | 1006.7 |
| 20260505234334 | 26 | 124 | 6.4 | 17.7 | 0.00 | 0.00 | 0.00 | 80 | 1006.6 |
| 20260505233830 | 26 | 128 | 3.2 | 16.1 | 0.00 | 0.00 | 0.00 | 80 | 1006.6 |
| 20260505233328 | 26 | 118 | 6.4 | 20.9 | 0.00 | 0.00 | 0.00 | 79 | 1006.6 |
| 20260505232825 | 26 | 137 | 8.0 | 12.9 | 0.00 | 0.00 | 0.00 | 79 | 1006.7 |
| 20260505232323 | 26 | 141 | 1.6 | 14.5 | 0.00 | 0.00 | 0.00 | 79 | 1006.5 |
| 20260505231819 | 27 | 167 | 9.7 | 20.9 | 0.00 | 0.00 | 0.00 | 78 | 1006.5 |
| 20260505231318 | 27 | 148 | 6.4 | 16.1 | 0.00 | 0.00 | 0.00 | 78 | 1006.6 |
| 20260505230815 | 27 | 294 | 3.2 | 11.3 | 0.00 | 0.00 | 0.00 | 76 | 1006.6 |
| 20260505230312 | 27 | 188 | 4.8 | 11.3 | 0.00 | 0.00 | 0.00 | 77 | 1006.5 |
| 20260505225809 | 27 | 132 | 11.3 | 16.1 | 0.00 | 0.00 | 0.00 | 77 | 1006.7 |
| 20260505225306 | 27 | 102 | 9.7 | 11.3 | 0.00 | 0.00 | 0.00 | 77 | 1006.6 |
| 20260505224801 | 27 | 225 | 3.2 | 6.4 | 0.00 | 0.00 | 0.00 | 77 | 1006.6 |
| 20260505224259 | 27 | 142 | 8.0 | 20.9 | 0.00 | 0.00 | 0.00 | 77 | 1006.4 |
| 20260505223756 | 27 | 251 | 4.8 | 9.7 | 0.00 | 0.00 | 0.00 | 78 | 1006.3 |
| 20260505223253 | 28 | 112 | 6.4 | 14.5 | 0.00 | 0.00 | 0.00 | 76 | 1006.5 |
| 20260505222748 | 28 | 151 | 4.8 | 11.3 | 0.00 | 0.00 | 0.00 | 76 | 1006.6 |
| 20260505222245 | 28 | 157 | 8.0 | 17.7 | 0.00 | 0.00 | 0.00 | 74 | 1006.5 |
| 20260505221742 | 28 | 204 | 9.7 | 20.9 | 0.00 | 0.00 | 0.00 | 75 | 1006.6 |
| 20260505221239 | 28 | 177 | 3.2 | 9.7 | 0.00 | 0.00 | 0.00 | 74 | 1006.6 |
| 20260505220735 | 28 | 122 | 4.8 | 12.9 | 0.00 | 0.00 | 0.00 | 75 | 1006.7 |
| 20260505220233 | 28 | 228 | 8.0 | 12.9 | 0.00 | 0.00 | 0.00 | 74 | 1006.6 |
| 20260505215731 | 28 | 129 | 6.4 | 14.5 | 0.00 | 0.00 | 0.00 | 74 | 1006.6 |
| 20260505215229 | 28 | 111 | 4.8 | 12.9 | 0.00 | 0.00 | 0.00 | 71 | 1006.9 |
| 20260505214726 | 28 | 120 | 4.8 | 12.9 | 0.00 | 0.00 | 0.00 | 74 | 1006.8 |
| 20260505214224 | 29 | 211 | 6.4 | 11.3 | 0.00 | 0.00 | 0.00 | 73 | 1006.7 |
| 20260505213721 | 28 | 145 | 4.8 | 9.7 | 0.00 | 0.00 | 0.00 | 74 | 1006.7 |
| 20260505213218 | 28 | 269 | 3.2 | 16.1 | 0.00 | 0.00 | 0.00 | 74 | 1007.0 |
| 20260505212714 | 28 | 226 | 6.4 | 14.5 | 0.00 | 0.00 | 0.00 | 76 | 1007.2 |
| 20260505212211 | 28 | 130 | 3.2 | 16.1 | 0.00 | 0.00 | 0.00 | 75 | 1007.2 |
| 20260505211708 | 28 | 199 | 12.9 | 17.7 | 0.00 | 0.00 | 0.00 | 76 | 1007.2 |
| 20260505211205 | 28 | 178 | 9.7 | 22.5 | 0.00 | 0.00 | 0.00 | 73 | 1007.2 |
| 20260505210702 | 28 | 168 | 6.4 | 11.3 | 0.00 | 0.00 | 0.00 | 75 | 1007.4 |
| 20260505210159 | 29 | 94 | 4.8 | 14.5 | 0.00 | 0.00 | 0.00 | 75 | 1007.3 |
| 20260505205656 | 29 | 151 | 4.8 | 12.9 | 0.00 | 0.00 | 0.00 | 72 | 1007.6 |
| 20260505205154 | 28 | 163 | 3.2 | 12.9 | 0.00 | 0.00 | 0.00 | 76 | 1007.7 |
| 20260505204650 | 28 | 127 | 3.2 | 17.7 | 0.00 | 0.00 | 0.00 | 76 | 1007.8 |
| 20260505204148 | 29 | 138 | 9.7 | 17.7 | 0.00 | 0.00 | 0.00 | 71 | 1008.0 |
| 20260505203645 | 29 | 155 | 3.2 | 11.3 | 0.00 | 0.00 | 0.00 | 73 | 1008.0 |
| 20260505203142 | 28 | 133 | 3.2 | 11.3 | 0.00 | 0.00 | 0.00 | 75 | 1008.0 |
| 20260505202638 | 28 | 188 | 6.4 | 11.3 | 0.00 | 0.00 | 0.00 | 73 | 1008.1 |
| 20260505202134 | 28 | 108 | 6.4 | 11.3 | 0.00 | 0.00 | 0.00 | 74 | 1008.0 |
| 20260505201631 | 28 | 162 | 6.4 | 12.9 | 0.00 | 0.00 | 0.00 | 74 | 1008.2 |
| 20260505201129 | 28 | 175 | 12.9 | 17.7 | 0.00 | 0.00 | 0.00 | 74 | 1008.2 |
| 20260505200626 | 28 | 307 | 3.2 | 9.7 | 0.00 | 0.00 | 0.00 | 74 | 1008.5 |
| 20260505200123 | 28 | 195 | 1.6 | 14.5 | 0.00 | 0.00 | 0.00 | 73 | 1008.3 |
| 20260505195619 | 28 | 129 | 1.6 | 12.9 | 0.00 | 0.00 | 0.00 | 75 | 1008.4 |
| 20260505195117 | 28 | 141 | 1.6 | 4.8 | 0.00 | 0.00 | 0.00 | 77 | 1008.6 |
| 20260505194614 | 28 | 110 | 3.2 | 17.7 | 0.00 | 0.00 | 0.00 | 76 | 1008.8 |
| 20260505194109 | 28 | 120 | 3.2 | 16.1 | 0.00 | 0.00 | 0.00 | 74 | 1008.7 |
| 20260505193607 | 29 | 158 | 4.8 | 12.9 | 0.00 | 0.00 | 0.00 | 71 | 1008.8 |
| 20260505193104 | 29 | 229 | 8.0 | 12.9 | 0.00 | 0.00 | 0.00 | 71 | 1008.8 |
| 20260505192603 | 28 | 89 | 4.8 | 14.5 | 0.00 | 0.00 | 0.00 | 77 | 1008.7 |
| 20260505192100 | 27 | 173 | 4.8 | 9.7 | 0.00 | 0.00 | 0.00 | 80 | 1008.7 |
| 20260505191558 | 28 | 135 | 3.2 | 9.7 | 0.00 | 0.00 | 0.00 | 77 | 1009.1 |
| 20260505191056 | 28 | 124 | 1.6 | 3.2 | 0.00 | 0.00 | 0.00 | 75 | 1009.0 |
| 20260505190555 | 28 | 133 | 3.2 | 9.7 | 0.00 | 0.00 | 0.00 | 75 | 1008.9 |
| 20260505190052 | 28 | 211 | 3.2 | 6.4 | 0.00 | 0.00 | 0.00 | 75 | 1009.2 |